TimeCST,TemperatureF,Dew PointF,Humidity,Sea Level PressureIn,VisibilityMPH,Wind Direction,Wind SpeedMPH,Gust SpeedMPH,PrecipitationIn,Events,Conditions,WindDirDegrees,DateUTC
12:15 AM,41.0,28.4,61,30.07,10.0,Calm,Calm,-,N/A,,Clear,0,2012-11-07 06:15:00
12:35 AM,42.8,28.4,57,30.07,10.0,Calm,Calm,-,N/A,,Clear,0,2012-11-07 06:35:00
12:55 AM,39.2,28.4,65,30.07,10.0,WNW,3.5,-,N/A,,Clear,290,2012-11-07 06:55:00
1:16 AM,39.2,28.4,65,30.07,10.0,WNW,4.6,-,N/A,,Clear,300,2012-11-07 07:16:00
1:35 AM,42.8,28.4,57,30.07,10.0,Calm,Calm,-,N/A,,Clear,0,2012-11-07 07:35:00
1:55 AM,39.2,30.2,70,30.07,10.0,NNW,3.5,-,N/A,,Clear,340,2012-11-07 07:55:00
2:55 AM,35.6,26.6,70,30.07,10.0,Calm,Calm,-,N/A,,Clear,0,2012-11-07 08:55:00
3:15 AM,35.6,26.6,70,30.07,10.0,Calm,Calm,-,N/A,,Clear,0,2012-11-07 09:15:00
3:55 AM,33.8,26.6,75,30.08,10.0,Calm,Calm,-,N/A,,Clear,0,2012-11-07 09:55:00
4:35 AM,35.6,26.6,70,30.09,10.0,West,3.5,-,N/A,,Clear,260,2012-11-07 10:35:00
4:55 AM,35.6,26.6,70,30.09,10.0,Calm,Calm,-,N/A,,Clear,0,2012-11-07 10:55:00
5:15 AM,33.8,24.8,70,30.09,10.0,Calm,Calm,-,N/A,,Clear,0,2012-11-07 11:15:00
5:35 AM,33.8,26.6,75,30.10,10.0,Calm,Calm,-,N/A,,Clear,0,2012-11-07 11:35:00
5:55 AM,33.8,26.6,75,30.11,10.0,Calm,Calm,-,N/A,,Clear,0,2012-11-07 11:55:00
6:15 AM,33.8,26.6,75,30.11,10.0,WNW,3.5,-,N/A,,Clear,290,2012-11-07 12:15:00
6:55 AM,35.6,28.4,75,30.12,10.0,NW,4.6,-,N/A,,Clear,320,2012-11-07 12:55:00
7:15 AM,35.6,28.4,75,30.13,10.0,WNW,3.5,-,N/A,,Clear,300,2012-11-07 13:15:00
8:15 AM,42.8,30.2,61,30.15,10.0,NW,3.5,-,N/A,,Clear,310,2012-11-07 14:15:00
8:55 AM,46.4,30.2,53,30.15,9.0,North,5.8,-,N/A,,Clear,350,2012-11-07 14:55:00
9:15 AM,48.2,30.2,50,30.15,10.0,NW,6.9,-,N/A,,Clear,320,2012-11-07 15:15:00
9:55 AM,51.8,30.2,44,30.16,10.0,NNW,8.1,-,N/A,,Clear,340,2012-11-07 15:55:00
10:15 AM,53.6,32.0,44,30.16,10.0,NNW,10.4,16.1,N/A,,Clear,340,2012-11-07 16:15:00
10:35 AM,53.6,30.2,41,30.16,10.0,NW,12.7,19.6,N/A,,Clear,320,2012-11-07 16:35:00
11:15 AM,55.4,32.0,41,30.15,10.0,NW,9.2,-,N/A,,Clear,320,2012-11-07 17:15:00
11:35 AM,55.4,30.2,38,30.14,10.0,NNW,11.5,17.3,N/A,,Clear,340,2012-11-07 17:35:00
11:55 AM,55.4,30.2,38,30.13,10.0,NNW,12.7,18.4,N/A,,Clear,330,2012-11-07 17:55:00
11:56 AM,55.4,30.2,38,30.13,10.0,NW,11.5,18.4,N/A,,Clear,320,2012-11-07 17:56:00
12:15 PM,55.4,28.4,36,30.13,10.0,North,12.7,21.9,N/A,,Clear,350,2012-11-07 18:15:00
12:35 PM,57.2,28.4,33,30.12,10.0,North,17.3,23.0,N/A,,Clear,360,2012-11-07 18:35:00
1:15 PM,57.2,28.4,33,30.11,10.0,North,13.8,-,N/A,,Clear,360,2012-11-07 19:15:00
1:35 PM,57.2,28.4,33,30.10,10.0,North,11.5,-,N/A,,Clear,360,2012-11-07 19:35:00
1:55 PM,57.2,26.6,31,30.09,10.0,North,16.1,-,N/A,,Clear,360,2012-11-07 19:55:00
2:15 PM,59.0,26.6,29,30.09,10.0,North,9.2,-,N/A,,Clear,360,2012-11-07 20:15:00
2:55 PM,59.0,26.6,29,30.09,10.0,NNW,8.1,-,N/A,,Clear,340,2012-11-07 20:55:00
3:15 PM,59.0,26.6,29,30.09,8.0,North,5.8,-,N/A,,Clear,360,2012-11-07 21:15:00
3:35 PM,59.0,26.6,29,30.09,10.0,NNW,5.8,-,N/A,,Clear,340,2012-11-07 21:35:00
3:55 PM,57.2,26.6,31,30.09,10.0,North,8.1,-,N/A,,Clear,10,2012-11-07 21:55:00
4:35 PM,57.2,26.6,31,30.09,10.0,NNW,5.8,-,N/A,,Clear,340,2012-11-07 22:35:00
4:55 PM,57.2,26.6,31,30.09,10.0,Calm,Calm,-,N/A,,Clear,0,2012-11-07 22:55:00
5:15 PM,55.4,26.6,33,30.09,10.0,Calm,Calm,-,N/A,,Clear,0,2012-11-07 23:15:00
5:55 PM,50.0,26.6,40,30.10,10.0,ENE,3.5,-,N/A,,Clear,60,2012-11-07 23:55:00
6:15 PM,50.0,28.4,43,30.10,10.0,NE,3.5,-,N/A,,Clear,50,2012-11-08 00:15:00
6:35 PM,48.2,28.4,46,30.11,10.0,ENE,3.5,-,N/A,,Clear,60,2012-11-08 00:35:00
6:55 PM,46.4,28.4,50,30.11,10.0,ENE,3.5,-,N/A,,Clear,70,2012-11-08 00:55:00
6:56 PM,46.4,28.4,50,30.11,10.0,ENE,3.5,-,N/A,,Clear,70,2012-11-08 00:56:00
7:15 PM,46.4,28.4,50,30.10,10.0,East,3.5,-,N/A,,Clear,80,2012-11-08 01:15:00
7:35 PM,46.4,28.4,50,30.11,10.0,Calm,Calm,-,N/A,,Clear,0,2012-11-08 01:35:00
8:15 PM,42.8,28.4,57,30.11,10.0,Calm,Calm,-,N/A,,Clear,0,2012-11-08 02:15:00
8:35 PM,41.0,28.4,61,30.11,10.0,Calm,Calm,-,N/A,,Clear,0,2012-11-08 02:35:00
9:15 PM,41.0,28.4,61,30.11,10.0,SE,4.6,-,N/A,,Clear,130,2012-11-08 03:15:00
9:35 PM,42.8,30.2,61,30.11,10.0,SE,4.6,-,N/A,,Clear,140,2012-11-08 03:35:00
10:15 PM,41.0,30.2,65,30.12,10.0,ESE,4.6,-,N/A,,Clear,110,2012-11-08 04:15:00
10:35 PM,42.8,30.2,61,30.11,10.0,ESE,5.8,-,N/A,,Clear,110,2012-11-08 04:35:00
10:55 PM,42.8,30.2,61,30.11,10.0,SE,4.6,-,N/A,,Clear,130,2012-11-08 04:55:00
11:15 PM,42.8,30.2,61,30.11,10.0,ESE,3.5,-,N/A,,Clear,110,2012-11-08 05:15:00
11:35 PM,41.0,30.2,65,30.11,10.0,ESE,3.5,-,N/A,,Clear,110,2012-11-08 05:35:00
11:55 PM,41.0,30.2,65,30.11,10.0,East,3.5,-,N/A,,Clear,100,2012-11-08 05:55:00